DW4466 Weather Reports


Display with metric or nautical units.
time (UTC)temp
F
wind
direction
speed
MPH
gust
MPH
rain 1hr
in
rain 24hr
in
rain mn
in
humidity
%
barometer
mb
20260507060550 56 94 6.0 11.0 0.00 0.20 0.17 76 1009.6
20260507060020 56 71 7.0 11.0 0.00 0.20 0.17 76 1009.5
20260507055554 56 74 4.0 12.0 0.00 0.20 0.17 77 1009.5
20260507055028 56 93 5.0 11.0 0.00 0.20 0.17 77 1009.2
20260507054607 56 84 5.0 11.0 0.00 0.20 0.17 77 1009.4
20260507054034 56 104 5.0 10.0 0.00 0.20 0.17 77 1009.1
20260507053506 56 85 3.0 11.0 0.00 0.20 0.17 77 1009.1
20260507053023 56 77 4.0 11.0 0.00 0.20 0.17 77 1009.3
20260507052554 56 116 5.0 11.0 0.00 0.20 0.17 77 1009.1
20260507052032 56 88 4.0 13.0 0.00 0.20 0.17 77 1009.1
20260507051609 56 128 7.0 14.0 0.00 0.20 0.17 77 1009.2
20260507051502 56 124 8.0 14.0 0.00 0.20 0.17 77 1009.1
20260507051019 56 48 6.0 14.0 0.00 0.20 0.17 77 1009.2
20260507050552 56 82 7.0 12.0 0.00 0.20 0.17 77 1009.2
20260507050036 56 77 6.0 12.0 0.00 0.20 0.17 77 1009.3
20260507045032 56 133 3.0 12.0 0.00 0.20 0.17 77 1009.3
20260507044503 56 100 4.0 9.0 0.00 0.20 0.17 77 1009.3
20260507044038 56 113 6.0 14.0 0.00 0.20 0.17 78 1009.2
20260507043508 57 91 4.0 14.0 0.00 0.20 0.17 79 1008.9
20260507043018 57 133 5.0 14.0 0.00 0.20 0.17 79 1009.3
20260507042553 57 102 7.0 14.0 0.00 0.20 0.17 80 1009.4
20260507042021 57 104 5.0 10.0 0.00 0.20 0.17 80 1009.2
20260507041559 57 69 5.0 11.0 0.00 0.20 0.17 80 1009.2
20260507041032 57 63 5.0 11.0 0.00 0.20 0.17 80 1009.1
20260507040600 57 128 2.0 10.0 0.00 0.20 0.17 80 1008.5
20260507040502 57 138 1.0 12.0 0.00 0.20 0.17 80 1008.5
20260507040030 58 128 3.0 14.0 0.00 0.20 0.17 80 1008.6
20260507035551 58 101 8.0 16.0 0.00 0.20 0.17 79 1009.1
20260507035029 58 70 10.0 16.0 0.00 0.20 0.17 79 1009.4
20260507034540 58 73 4.0 14.0 0.00 0.20 0.17 79 1009.2
20260507034009 58 106 7.0 14.0 0.00 0.20 0.17 79 1008.9
20260507033540 59 61 8.0 14.0 0.00 0.20 0.17 79 1008.7
20260507033010 59 89 6.0 12.0 0.00 0.20 0.17 79 1008.3
20260507032545 59 96 5.0 10.0 0.00 0.20 0.17 79 1008.1
20260507032015 60 128 4.0 12.0 0.00 0.20 0.17 79 1008.1
20260507031550 60 83 6.0 12.0 0.00 0.20 0.17 78 1008.6
20260507031022 60 86 6.0 11.0 0.00 0.20 0.17 77 1008.2
20260507030555 60 54 4.0 13.0 0.00 0.20 0.17 77 1008.6
20260507030035 60 73 6.0 15.0 0.00 0.20 0.17 77 1008.6
20260507025545 60 84 6.0 15.0 0.00 0.20 0.17 79 1008.5
20260507025017 60 86 5.0 10.0 0.00 0.20 0.17 79 1008.4
20260507024551 61 90 5.0 11.0 0.00 0.20 0.17 79 1008.5
20260507024024 61 115 6.0 12.0 0.00 0.20 0.17 80 1008.2
20260507023543 61 128 5.0 12.0 0.00 0.20 0.17 79 1007.9
20260507023011 61 146 4.0 10.0 0.00 0.20 0.17 79 1007.7
20260507022543 61 69 4.0 9.0 0.00 0.20 0.17 79 1007.8
20260507022016 62 113 3.0 9.0 0.00 0.20 0.17 78 1008.1
20260507021547 62 91 3.0 10.0 0.00 0.20 0.17 77 1008.2
20260507021003 62 104 5.0 15.0 0.00 0.20 0.17 76 1007.8
20260507020540 62 128 6.0 15.0 0.00 0.20 0.17 76 1007.8
20260507020011 62 86 7.0 12.0 0.00 0.20 0.17 77 1007.9
20260507015547 62 90 6.0 12.0 0.00 0.20 0.17 76 1007.8
20260507015017 62 79 7.0 12.0 0.00 0.20 0.17 76 1007.8
20260507014556 62 97 7.0 14.0 0.00 0.20 0.17 76 1007.7
20260507014017 62 33 8.0 14.0 0.00 0.20 0.17 75 1007.8
20260507013549 62 84 6.0 10.0 0.00 0.20 0.17 76 1007.7
20260507013021 63 72 6.0 12.0 0.00 0.20 0.17 76 1007.7
20260507012553 63 94 6.0 12.0 0.00 0.20 0.17 76 1007.5
20260507012026 63 103 5.0 11.0 0.00 0.20 0.17 76 1007.7
20260507011559 63 64 6.0 11.0 0.00 0.20 0.17 77 1007.6
20260507011501 63 69 5.0 11.0 0.00 0.20 0.17 77 1007.6
20260507011029 63 75 5.0 11.0 0.00 0.20 0.17 80 1007.8
20260507010507 63 59 5.0 12.0 0.00 0.20 0.17 80 1007.7
20260507010057 63 69 7.0 13.0 0.00 0.20 0.17 80 1007.7
20260507005509 64 106 7.0 11.0 0.00 0.20 0.17 80 1007.5
20260507005045 64 73 7.0 11.0 0.00 0.20 0.17 80 1007.8
20260507004520 64 78 7.0 14.0 0.00 0.20 0.17 80 1007.8
20260507004049 64 106 7.0 14.0 0.00 0.20 0.17 81 1007.7
20260507003524 64 108 4.0 12.0 0.00 0.20 0.17 81 1007.5
20260507003057 64 66 7.0 13.0 0.00 0.20 0.17 81 1007.5
20260507003001 64 101 6.0 13.0 0.00 0.20 0.17 81 1007.6
20260507002529 64 100 6.0 11.0 0.00 0.20 0.17 81 1007.6
20260507002059 65 117 5.0 11.0 0.00 0.20 0.17 81 1007.4
20260507002001 65 122 4.0 11.0 0.00 0.20 0.17 82 1007.4
20260507001534 65 83 7.0 11.0 0.00 0.20 0.17 83 1007.8
20260507001004 65 79 3.0 8.0 0.00 0.20 0.17 84 1007.7
20260507000519 65 82 5.0 10.0 0.00 0.20 0.17 83 1007.4
20260507000049 65 68 3.0 10.0 0.00 0.20 0.17 84 1007.3
20260506235521 65 65 4.0 8.0 0.00 0.20 0.17 85 1007.2
20260506235055 65 102 2.0 8.0 0.00 0.20 0.17 85 1007.2
20260506234527 66 98 4.0 7.0 0.01 0.20 0.17 86 1007.3
20260506234057 66 27 3.0 8.0 0.01 0.20 0.17 85 1007.0
20260506233527 66 88 5.0 9.0 0.01 0.20 0.17 85 1006.9
20260506233100 66 65 4.0 12.0 0.01 0.20 0.17 86 1006.8
20260506233000 66 117 4.0 12.0 0.01 0.20 0.17 86 1006.7
20260506232532 65 82 6.0 12.0 0.01 0.20 0.17 87 1006.5
20260506232005 65 68 5.0 9.0 0.01 0.20 0.17 90 1006.3
20260506231557 66 23 3.0 5.0 0.01 0.20 0.17 91 1006.4
20260506231010 66 304 0.0 3.0 0.01 0.20 0.17 90 1006.3
20260506230541 66 304 0.0 3.0 0.01 0.20 0.17 90 1006.2
20260506230111 67 248 0.0 2.0 0.01 0.20 0.17 89 1006.0
20260506225528 67 313 0.0 0.0 0.01 0.20 0.17 89 1006.1
20260506225003 67 313 0.0 2.0 0.00 0.19 0.17 88 1006.1
20260506224539 67 313 0.0 2.0 0.00 0.19 0.16 87 1006.2
20260506224006 68 313 0.0 1.0 0.00 0.19 0.16 84 1006.1
20260506223543 68 313 0.0 3.0 0.00 0.19 0.16 84 1006.1
20260506223010 68 313 1.0 3.0 0.00 0.19 0.16 83 1006.0
20260506222543 68 277 1.0 5.0 0.00 0.19 0.16 83 1006.0
20260506222014 68 318 1.0 5.0 0.00 0.19 0.16 82 1006.0
20260506221607 68 300 1.0 3.0 0.00 0.19 0.16 82 1006.0
20260506221025 68 305 0.0 4.0 0.00 0.19 0.16 82 1006.0
20260506220554 68 290 0.0 5.0 0.00 0.19 0.16 82 1006.0
20260506220033 68 148 2.0 9.0 0.00 0.19 0.16 81 1005.9
20260506215554 69 305 2.0 9.0 0.00 0.19 0.16 81 1006.0
20260506215034 69 267 3.0 8.0 0.00 0.19 0.16 80 1005.9
20260506214503 69 249 0.0 8.0 0.00 0.19 0.16 80 1005.8
20260506214037 69 346 3.0 7.0 0.00 0.19 0.16 81 1005.7
20260506213552 69 42 2.0 6.0 0.00 0.19 0.16 81 1005.8
20260506213024 69 294 2.0 6.0 0.00 0.19 0.16 80 1005.7
20260506212557 69 275 0.0 6.0 0.00 0.19 0.16 81 1005.7
20260506212033 69 56 2.0 9.0 0.00 0.19 0.16 80 1005.6
20260506211506 69 41 3.0 9.0 0.00 0.19 0.16 80 1005.6
20260506211024 69 297 2.0 10.0 0.00 0.19 0.16 80 1005.5
20260506210559 69 304 4.0 10.0 0.00 0.19 0.16 80 1005.4
20260506210035 69 289 2.0 11.0 0.00 0.19 0.16 81 1005.3
20260506205504 69 317 4.0 11.0 0.00 0.19 0.16 81 1005.1
20260506205025 69 315 1.0 10.0 0.00 0.19 0.16 81 1005.2
20260506204540 69 259 4.0 9.0 0.00 0.19 0.16 81 1005.2
20260506204013 69 283 4.0 8.0 0.00 0.19 0.16 80 1005.1
20260506203548 69 313 3.0 12.0 0.00 0.19 0.16 79 1005.1
20260506203020 69 244 4.0 14.0 0.00 0.19 0.16 78 1005.1
20260506202534 70 9 3.0 14.0 0.00 0.19 0.16 79 1005.1
20260506202009 69 296 5.0 13.0 0.00 0.19 0.16 79 1004.9
20260506201546 69 84 5.0 13.0 0.00 0.19 0.16 79 1005.1
20260506201014 69 358 4.0 10.0 0.00 0.19 0.16 80 1005.2
20260506200548 69 313 7.0 12.0 0.00 0.19 0.16 79 1005.4
20260506200020 69 298 4.0 10.0 0.00 0.19 0.16 79 1005.2
20260506195557 69 308 4.0 10.0 0.00 0.19 0.16 81 1005.2
20260506195020 69 325 5.0 11.0 0.00 0.19 0.16 80 1005.2
20260506194554 68 290 3.0 10.0 0.00 0.19 0.16 81 1005.3
20260506194027 68 288 4.0 12.0 0.00 0.19 0.16 81 1005.4
20260506193554 68 289 5.0 12.0 0.00 0.19 0.16 82 1005.1
20260506193030 67 271 2.0 10.0 0.00 0.19 0.16 82 1005.3
20260506192504 67 246 1.0 6.0 0.00 0.19 0.16 82 1005.4
20260506192039 67 315 3.0 10.0 0.00 0.19 0.16 81 1005.4
20260506191513 67 290 3.0 12.0 0.00 0.19 0.16 81 1005.4
20260506191042 67 289 5.0 11.0 0.00 0.19 0.16 81 1005.6
20260506190510 67 285 4.0 12.0 0.00 0.19 0.16 81 1005.6
20260506190044 67 273 3.0 11.0 0.00 0.19 0.16 81 1005.6
20260506185516 67 217 2.0 16.0 0.00 0.19 0.16 81 1005.6
20260506185048 67 304 6.0 16.0 0.00 0.19 0.16 81 1005.5
20260506184521 67 329 4.0 17.0 0.00 0.19 0.16 82 1005.6
20260506184053 67 232 7.0 17.0 0.00 0.19 0.16 81 1005.5
20260506183506 68 313 4.0 16.0 0.00 0.19 0.16 81 1005.4
20260506183040 67 259 7.0 16.0 0.00 0.19 0.16 80 1005.5
20260506182510 67 250 5.0 12.0 0.00 0.19 0.16 82 1005.5
20260506182042 67 273 5.0 13.0 0.00 0.19 0.16 82 1005.7
20260506181512 67 291 5.0 17.0 0.00 0.19 0.16 81 1005.8
20260506181042 67 284 7.0 17.0 0.00 0.19 0.16 81 1005.9
20260506180556 67 280 2.0 12.0 0.00 0.19 0.16 83 1005.7
20260506180031 66 217 3.0 12.0 0.00 0.19 0.16 84 1005.7
20260506175558 66 314 4.0 14.0 0.00 0.19 0.16 83 1005.7
20260506175028 66 319 5.0 11.0 0.00 0.19 0.16 83 1005.9
20260506174600 66 263 4.0 12.0 0.00 0.19 0.16 84 1006.0
20260506174505 66 286 5.0 12.0 0.00 0.19 0.16 84 1006.0
20260506174034 65 284 5.0 13.0 0.00 0.19 0.16 84 1005.8
20260506173603 65 304 6.0 13.0 0.00 0.19 0.16 84 1005.9
20260506173502 65 284 6.0 13.0 0.00 0.19 0.16 83 1006.0
20260506173044 65 245 2.0 13.0 0.00 0.19 0.16 84 1006.1
20260506172509 65 194 6.0 12.0 0.00 0.19 0.16 84 1006.2
20260506172047 65 311 2.0 12.0 0.00 0.19 0.16 85 1006.1
20260506171530 65 307 3.0 14.0 0.00 0.19 0.16 85 1006.2
20260506171048 65 350 6.0 14.0 0.00 0.19 0.16 84 1006.2
20260506170559 65 346 3.0 19.0 0.00 0.19 0.16 86 1006.3
20260506170502 65 282 2.0 22.0 0.00 0.19 0.16 85 1006.2
20260506170030 65 329 7.0 22.0 0.00 0.19 0.16 85 1006.1
20260506165554 65 325 4.0 16.0 0.00 0.19 0.16 87 1006.2
20260506165016 64 282 8.0 19.0 0.00 0.19 0.16 85 1006.3
20260506164543 64 317 6.0 23.0 0.00 0.19 0.16 87 1006.2
20260506164009 64 296 8.0 23.0 0.00 0.19 0.16 87 1006.2
20260506163526 63 313 5.0 18.0 0.00 0.19 0.16 87 1006.2
20260506163109 63 329 6.0 19.0 0.00 0.19 0.16 88 1006.3
20260506163002 63 263 8.0 19.0 0.00 0.19 0.16 88 1006.2
20260506162533 63 278 8.0 19.0 0.00 0.19 0.16 88 1006.3
20260506162004 63 111 8.0 17.0 0.00 0.19 0.16 89 1006.3
20260506161514 63 335 3.0 14.0 0.00 0.19 0.16 90 1006.5
20260506161050 62 279 3.0 18.0 0.00 0.19 0.16 90 1006.4
20260506160519 62 274 6.0 18.0 0.00 0.19 0.16 90 1006.5
20260506155509 62 297 4.0 10.0 0.00 0.19 0.16 91 1006.5
20260506155043 62 349 2.0 11.0 0.00 0.19 0.16 91 1006.4
20260506154519 61 246 5.0 16.0 0.00 0.19 0.16 91 1006.4
20260506154053 61 256 9.0 18.0 0.00 0.19 0.16 91 1006.4
20260506153528 61 47 6.0 17.0 0.00 0.19 0.16 91 1006.6
20260506153043 61 311 5.0 17.0 0.00 0.19 0.16 92 1006.5
20260506152515 61 275 4.0 16.0 0.00 0.19 0.16 92 1006.4
20260506152044 61 319 7.0 16.0 0.00 0.19 0.16 92 1006.3
20260506151511 61 295 6.0 15.0 0.01 0.19 0.16 93 1006.5
20260506151045 61 309 4.0 16.0 0.01 0.19 0.16 93 1006.5
20260506150515 61 298 4.0 13.0 0.01 0.19 0.16 94 1006.3
20260506150054 61 280 3.0 13.0 0.01 0.19 0.16 95 1006.5
20260506145521 60 284 4.0 13.0 0.01 0.19 0.16 95 1006.6
20260506145053 60 271 6.0 11.0 0.02 0.19 0.16 95 1006.6
20260506144536 60 311 6.0 11.0 0.04 0.19 0.16 95 1006.5
20260506144006 60 259 6.0 14.0 0.04 0.19 0.16 95 1006.5
20260506143517 60 316 4.0 16.0 0.04 0.19 0.16 95 1006.4
20260506143051 60 262 4.0 16.0 0.04 0.19 0.16 95 1006.5
20260506142525 60 247 2.0 11.0 0.04 0.19 0.16 95 1006.8
20260506142055 60 265 2.0 9.0 0.05 0.19 0.16 95 1007.1
20260506141527 60 288 2.0 11.0 0.04 0.18 0.15 95 1006.9
20260506141042 59 315 2.0 11.0 0.05 0.18 0.15 95 1007.1
20260506140514 59 279 3.0 14.0 0.05 0.18 0.15 95 1007.2
20260506140048 59 264 2.0 11.0 0.06 0.18 0.15 94 1007.2
20260506135518 59 277 4.0 10.0 0.06 0.17 0.15 94 1007.0
20260506135053 59 319 4.0 10.0 0.06 0.16 0.14 94 1006.9
20260506134525 60 302 5.0 10.0 0.05 0.15 0.12 94 1007.1
20260506134058 60 283 3.0 8.0 0.06 0.15 0.12 94 1007.2
20260506133526 60 292 3.0 15.0 0.06 0.15 0.12 94 1007.0
20260506133102 60 292 5.0 15.0 0.06 0.15 0.12 94 1007.1
20260506133002 60 319 4.0 15.0 0.06 0.15 0.12 94 1007.0
20260506132534 60 290 4.0 9.0 0.07 0.15 0.12 94 1007.0
20260506132050 60 238 4.0 9.0 0.07 0.14 0.11 94 1007.0
20260506131517 60 295 3.0 9.0 0.07 0.14 0.11 94 1007.0
20260506131050 60 315 3.0 8.0 0.06 0.13 0.10 94 1007.0
20260506130523 60 285 1.0 10.0 0.06 0.13 0.10 94 1007.0
20260506130057 60 275 4.0 10.0 0.06 0.12 0.09 93 1007.0
20260506125533 60 277 1.0 8.0 0.06 0.11 0.08 93 1007.4
20260506125012 60 255 1.0 6.0 0.06 0.10 0.07 93 1007.4
20260506124543 60 268 0.0 4.0 0.06 0.10 0.07 93 1007.8
20260506124016 60 19 2.0 6.0 0.06 0.09 0.06 93 1007.6
20260506123547 60 300 1.0 6.0 0.07 0.09 0.06 92 1007.3
20260506123027 60 308 2.0 4.0 0.07 0.09 0.06 92 1007.3
20260506122555 60 316 0.0 3.0 0.07 0.08 0.05 92 1007.1
20260506122028 60 288 0.0 3.0 0.06 0.07 0.04 92 1007.1
20260506121600 60 343 1.0 6.0 0.06 0.07 0.04 91 1007.1
20260506121033 60 250 1.0 6.0 0.07 0.07 0.04 91 1007.0
20260506120505 60 329 1.0 5.0 0.06 0.06 0.04 90 1007.1
20260506120043 60 261 1.0 5.0 0.06 0.06 0.03 90 1007.0
20260506115513 60 230 2.0 7.0 0.05 0.05 0.02 89 1007.0
20260506115028 60 283 1.0 9.0 0.04 0.04 0.02 88 1007.2
20260506114517 61 313 4.0 9.0 0.03 0.03 0.01 87 1007.3
20260506114037 61 326 4.0 9.0 0.03 0.03 0.00 86 1007.4
20260506113511 61 302 2.0 9.0 0.02 0.02 0.02 85 1007.4
20260506113047 62 316 4.0 9.0 0.02 0.02 0.02 84 1007.4
20260506112557 62 297 4.0 10.0 0.01 0.01 0.01 83 1007.3
20260506112034 62 292 4.0 9.0 0.01 0.01 0.01 81 1007.1
20260506111559 63 265 2.0 6.0 0.01 0.01 0.01 80 1007.2
20260506111502 63 248 1.0 6.0 0.00 0.00 0.00 80 1007.1
20260506111035 63 314 1.0 8.0 0.00 0.00 0.00 79 1007.1
20260506110549 63 3 2.0 8.0 0.00 0.00 0.00 78 1007.0
20260506110005 63 330 2.0 9.0 0.00 0.00 0.00 77 1006.9
20260506105543 64 309 3.0 9.0 0.00 0.00 0.00 77 1006.9
20260506105012 64 236 3.0 9.0 0.00 0.00 0.00 76 1006.8
20260506104548 64 302 2.0 14.0 0.00 0.00 0.00 75 1006.9
20260506104018 64 194 4.0 14.0 0.00 0.00 0.00 75 1006.6
20260506103552 64 312 5.0 12.0 0.00 0.00 0.00 75 1006.5
20260506103009 64 204 2.0 12.0 0.00 0.00 0.00 75 1006.4
20260506102544 64 331 7.0 18.0 0.00 0.00 0.00 74 1006.4
20260506102015 64 323 6.0 18.0 0.00 0.00 0.00 73 1006.3
20260506101551 65 308 4.0 15.0 0.00 0.00 0.00 73 1006.2
20260506101029 65 319 7.0 15.0 0.00 0.00 0.00 73 1006.4
20260506100559 65 292 5.0 10.0 0.00 0.00 0.00 73 1006.3
20260506100029 65 290 5.0 10.0 0.00 0.00 0.00 72 1006.2
20260506095507 65 286 3.0 12.0 0.00 0.00 0.00 72 1006.1
20260506095039 65 289 4.0 17.0 0.00 0.00 0.00 72 1006.1
20260506094513 65 274 7.0 18.0 0.00 0.00 0.00 72 1006.2
20260506094044 65 335 4.0 11.0 0.00 0.00 0.00 71 1006.2
20260506093600 65 261 5.0 11.0 0.00 0.00 0.00 71 1006.2
20260506093032 65 209 3.0 15.0 0.00 0.00 0.00 70 1006.2
20260506092511 65 327 4.0 13.0 0.00 0.00 0.00 70 1006.2
20260506092045 65 264 6.0 13.0 0.00 0.00 0.00 70 1006.2
20260506091515 65 318 3.0 11.0 0.00 0.00 0.00 69 1006.2
20260506091048 65 291 3.0 17.0 0.00 0.00 0.00 69 1006.5
20260506090527 66 219 3.0 17.0 0.00 0.00 0.00 69 1006.6
20260506090054 66 269 7.0 15.0 0.00 0.00 0.00 68 1006.6
20260506085528 66 277 4.0 21.0 0.00 0.00 0.00 68 1006.5
20260506085100 66 192 9.0 21.0 0.00 0.00 0.00 68 1006.5
20260506085002 66 343 5.0 12.0 0.00 0.00 0.00 68 1006.5
20260506084540 66 298 3.0 19.0 0.00 0.00 0.00 68 1006.2
20260506084006 66 310 6.0 19.0 0.00 0.00 0.00 68 1006.4
20260506083536 66 289 9.0 17.0 0.00 0.00 0.00 67 1006.5
20260506083009 66 294 5.0 17.0 0.00 0.00 0.00 67 1006.5
20260506082522 66 307 5.0 17.0 0.00 0.00 0.00 67 1006.5
20260506082055 66 271 7.0 16.0 0.00 0.00 0.00 67 1006.6
20260506081530 66 297 7.0 16.0 0.00 0.00 0.00 66 1006.6
20260506081004 66 286 6.0 19.0 0.00 0.00 0.00 66 1006.6
20260506080532 66 290 5.0 13.0 0.00 0.00 0.00 66 1006.6
20260506073020 66 267 4.0 16.0 0.00 0.00 0.00 65 1006.6
20260506072554 66 242 9.0 16.0 0.00 0.00 0.00 64 1006.6
20260506072032 66 314 6.0 13.0 0.00 0.00 0.00 65 1006.6
20260506071555 66 292 7.0 14.0 0.00 0.00 0.00 64 1006.6
20260506071019 66 314 6.0 18.0 0.00 0.00 0.00 64 1006.5
20260506070558 66 292 5.0 13.0 0.00 0.00 0.00 64 1006.6
20260506062032 67 265 4.0 16.0 0.00 0.00 0.00 60 1007.5
20260506061508 68 283 3.0 15.0 0.00 0.00 0.00 61 1007.6
20260506061042 68 313 4.0 15.0 0.00 0.00 0.00 60 1007.6